Location: Eitze
(52.9840°N, 9.6894°E)
Time: 05:43:06
(UTC+00:00)

ARIANE 5 R/B - Pass Details

Date: 19 May 2025
Orbit: 614 x 648 km, 98.0° (Epoch: 12 June)

Event Time Altitude Azimuth Distance (km) Brightness Sun altitude
Exits shadow 23:01:17 22° 222° (SW) 1,369 3.9 -16.9°
Maximum altitude 23:03:10 31° 265° (W) 1,104 3.8 -17.0°
Drops below altitude 10° 23:07:03 10° 328° (NNW) 2,005 6.1 -17.0°
Sets 23:09:28 0° 339° (NNW) 2,923 7.4 -17.0°
